Location: Caltech
(34.1382°N, 118.1253°W)
Time: 04:39:20
(UTC-08:00)

Iridium 59 - Visible Passes

Search period start: 03 March 2015 00:00
Search period end: 13 March 2015 01:00
Orbit: 776 x 779 km, 86.4° (Epoch: 02 March)

Date Brightness Start Highest point End Pass type
(mag) Time Alt. Az. Time Alt. Az. Time Alt. Az.
03 Mar 6.2 18:17:33 10° NNE 18:21:21 21° ENE 18:25:18 10° SE visible
03 Mar 6.5 19:57:28 10° NNW 20:02:13 36° W 20:06:54 10° SSW visible
04 Mar 5.3 19:23:36 10° N 19:28:48 70° W 19:33:58 10° S visible
05 Mar 5.0 18:50:07 10° N 18:55:16 60° E 19:00:25 10° SSE visible
05 Mar 8.1 20:33:20 10° NW 20:35:32 12° W 20:37:25 10° WSW visible
06 Mar 5.8 18:17:04 10° NNE 18:21:36 31° E 18:26:13 10° SE visible
06 Mar 7.3 19:58:02 10° NNW 20:02:14 24° W 20:06:16 10° SW visible
07 Mar 6.1 19:23:51 10° NNW 19:28:51 46° W 19:33:47 10° SSW visible
08 Mar 5.0 19:50:09 10° N 19:55:23 89° ENE 20:00:36 10° S visible
09 Mar 5.3 19:16:49 10° NNE 19:21:49 46° E 19:26:49 10° SSE visible
09 Mar 7.9 20:58:56 10° NW 21:02:12 16° W 21:05:13 10° WSW visible
10 Mar 6.9 20:24:16 10° NNW 20:28:52 31° W 20:33:21 10° SW visible
11 Mar 5.6 19:50:18 10° N 19:55:27 61° W 20:00:34 10° SSW visible
12 Mar 5.0 19:16:44 10° N 19:21:57 69° E 19:27:08 10° S visible
12 Mar 8.4 21:01:01 10° WNW 21:02:08 10° W 21:02:53 10° W visible
